Time,TemperatureF,DewpointF,PressureIn,WindDirection,WindDirectionDegrees,WindSpeedMPH,WindSpeedGustMPH,Humidity,HourlyPrecipIn,Conditions,Clouds,dailyrainin,SoftwareType,DateUTC
2013-09-27 00:01:00,44.5,43.0,30.02,South,174,3.0,3.0,95,0.00,,,0.00,weatherlink.com 1.10,2013-09-27 07:01:00,
2013-09-27 00:16:00,44.2,43.0,30.02,South,174,2.0,2.0,95,0.00,,,0.00,weatherlink.com 1.10,2013-09-27 07:16:00,
2013-09-27 00:31:00,43.6,42.0,30.03,South,174,2.0,2.0,95,0.00,,,0.00,weatherlink.com 1.10,2013-09-27 07:31:00,
2013-09-27 00:46:00,43.6,42.0,30.03,South,174,2.0,3.0,95,0.00,,,0.00,weatherlink.com 1.10,2013-09-27 07:46:00,
2013-09-27 01:01:00,43.5,42.0,30.03,South,174,3.0,4.0,95,0.00,,,0.00,weatherlink.com 1.10,2013-09-27 08:01:00,
2013-09-27 01:16:00,43.4,42.0,30.03,South,175,1.0,3.0,96,0.00,,,0.00,weatherlink.com 1.10,2013-09-27 08:16:00,
2013-09-27 01:31:00,43.1,42.0,30.03,South,175,2.0,3.0,96,0.00,,,0.00,weatherlink.com 1.10,2013-09-27 08:31:00,
2013-09-27 01:46:00,44.2,43.0,30.04,South,174,0.0,2.0,95,0.00,,,0.00,weatherlink.com 1.10,2013-09-27 08:46:00,
2013-09-27 02:01:00,42.7,42.0,30.04,South,175,2.0,2.0,96,0.00,,,0.00,weatherlink.com 1.10,2013-09-27 09:01:00,
2013-09-27 02:16:00,42.1,41.0,30.05,South,174,0.0,0.0,96,0.00,,,0.00,weatherlink.com 1.10,2013-09-27 09:16:00,
2013-09-27 02:32:00,43.0,42.0,30.05,South,174,3.0,4.0,96,0.00,,,0.00,weatherlink.com 1.10,2013-09-27 09:32:00,
2013-09-27 02:47:00,43.6,43.0,30.05,South,174,3.0,3.0,96,0.00,,,0.00,weatherlink.com 1.10,2013-09-27 09:47:00,
2013-09-27 03:02:00,42.8,42.0,30.05,South,174,2.0,3.0,95,0.00,,,0.00,weatherlink.com 1.10,2013-09-27 10:02:00,
2013-09-27 03:17:00,43.2,42.0,30.05,South,174,2.0,3.0,96,0.00,,,0.00,weatherlink.com 1.10,2013-09-27 10:17:00,
2013-09-27 03:32:00,42.8,42.0,30.05,South,174,2.0,2.0,96,0.00,,,0.00,weatherlink.com 1.10,2013-09-27 10:32:00,
2013-09-27 03:47:00,42.3,41.0,30.05,South,174,2.0,2.0,96,0.00,,,0.00,weatherlink.com 1.10,2013-09-27 10:47:00,
2013-09-27 04:02:00,42.0,41.0,30.06,South,174,3.0,3.0,96,0.00,,,0.00,weatherlink.com 1.10,2013-09-27 11:02:00,
2013-09-27 04:17:00,42.4,42.0,30.06,South,174,2.0,3.0,97,0.00,,,0.00,weatherlink.com 1.10,2013-09-27 11:17:00,
2013-09-27 04:32:00,41.8,41.0,30.06,South,175,2.0,3.0,96,0.00,,,0.00,weatherlink.com 1.10,2013-09-27 11:32:00,
2013-09-27 04:47:00,42.0,41.0,30.06,South,173,1.0,3.0,97,0.00,,,0.00,weatherlink.com 1.10,2013-09-27 11:47:00,
2013-09-27 05:02:00,41.7,41.0,30.06,South,173,1.0,3.0,96,0.00,,,0.00,weatherlink.com 1.10,2013-09-27 12:02:00,
2013-09-27 05:17:00,41.4,40.0,30.07,South,174,2.0,4.0,96,0.00,,,0.00,weatherlink.com 1.10,2013-09-27 12:17:00,
2013-09-27 05:32:00,40.9,40.0,30.07,South,174,2.0,2.0,96,0.00,,,0.00,weatherlink.com 1.10,2013-09-27 12:32:00,
2013-09-27 05:47:00,40.2,39.0,30.07,South,175,2.0,3.0,96,0.00,,,0.00,weatherlink.com 1.10,2013-09-27 12:47:00,
2013-09-27 06:02:00,40.1,39.0,30.08,South,175,2.0,3.0,96,0.00,,,0.00,weatherlink.com 1.10,2013-09-27 13:02:00,
2013-09-27 06:17:00,39.9,39.0,30.09,South,173,1.0,3.0,97,0.00,,,0.00,weatherlink.com 1.10,2013-09-27 13:17:00,
2013-09-27 06:32:00,39.7,39.0,30.09,South,173,2.0,2.0,97,0.00,,,0.00,weatherlink.com 1.10,2013-09-27 13:32:00,
2013-09-27 07:02:00,39.5,39.0,30.10,South,173,1.0,3.0,97,0.01,,,0.01,weatherlink.com 1.10,2013-09-27 14:02:00,
2013-09-27 07:17:00,39.4,38.0,30.10,South,173,1.0,3.0,96,0.01,,,0.01,weatherlink.com 1.10,2013-09-27 14:17:00,
2013-09-27 07:32:00,39.6,39.0,30.11,South,173,1.0,2.0,97,0.01,,,0.01,weatherlink.com 1.10,2013-09-27 14:32:00,
2013-09-27 07:47:00,40.3,40.0,30.12,South,174,1.0,2.0,97,0.01,,,0.01,weatherlink.com 1.10,2013-09-27 14:47:00,
2013-09-27 08:02:00,41.5,41.0,30.12,South,174,1.0,2.0,97,0.00,,,0.01,weatherlink.com 1.10,2013-09-27 15:02:00,
2013-09-27 08:17:00,44.4,44.0,30.13,South,175,0.0,2.0,97,0.00,,,0.01,weatherlink.com 1.10,2013-09-27 15:17:00,
2013-09-27 08:32:00,46.7,46.0,30.12,South,174,0.0,0.0,96,0.00,,,0.01,weatherlink.com 1.10,2013-09-27 15:32:00,
2013-09-27 08:47:00,50.4,49.0,30.11,South,174,0.0,0.0,96,0.00,,,0.01,weatherlink.com 1.10,2013-09-27 15:47:00,
2013-09-27 09:02:00,53.4,52.0,30.11,South,174,0.0,0.0,93,0.00,,,0.01,weatherlink.com 1.10,2013-09-27 16:02:00,
2013-09-27 09:18:00,56.2,53.0,30.11,South,174,0.0,0.0,90,0.00,,,0.01,weatherlink.com 1.10,2013-09-27 16:18:00,
2013-09-27 09:33:00,57.1,53.0,30.11,South,174,0.0,0.0,85,0.00,,,0.01,weatherlink.com 1.10,2013-09-27 16:33:00,
2013-09-27 09:48:00,58.4,53.0,30.11,South,174,4.0,5.0,82,0.00,,,0.01,weatherlink.com 1.10,2013-09-27 16:48:00,
2013-09-27 10:03:00,59.3,52.0,30.11,South,174,3.0,5.0,78,0.00,,,0.01,weatherlink.com 1.10,2013-09-27 17:03:00,
2013-09-27 10:18:00,60.8,53.0,30.12,South,174,2.0,3.0,76,0.00,,,0.01,weatherlink.com 1.10,2013-09-27 17:18:00,
2013-09-27 10:33:00,62.7,52.0,30.11,South,174,2.0,3.0,67,0.00,,,0.01,weatherlink.com 1.10,2013-09-27 17:33:00,
2013-09-27 10:48:00,63.8,49.0,30.10,South,174,2.0,4.0,59,0.00,,,0.01,weatherlink.com 1.10,2013-09-27 17:48:00,
2013-09-27 11:03:00,64.9,51.0,30.10,South,174,3.0,-999.0,61,-99.99,,,0.01,weatherlink.com 1.10,2013-09-27 18:03:00,
2013-09-27 11:18:00,66.6,46.0,30.10,South,174,4.0,7.0,47,0.00,,,0.01,weatherlink.com 1.10,2013-09-27 18:18:00,
2013-09-27 11:33:00,68.6,46.0,30.09,South,174,7.0,8.0,45,0.00,,,0.01,weatherlink.com 1.10,2013-09-27 18:33:00,
2013-09-27 11:48:00,69.4,46.0,30.09,South,174,4.0,8.0,43,0.00,,,0.01,weatherlink.com 1.10,2013-09-27 18:48:00,
2013-09-27 12:03:00,67.6,52.0,30.09,South,174,7.0,13.0,58,0.00,,,0.01,weatherlink.com 1.10,2013-09-27 19:03:00,
2013-09-27 12:18:00,66.8,53.0,30.09,South,174,1.0,7.0,61,0.00,,,0.01,weatherlink.com 1.10,2013-09-27 19:18:00,
2013-09-27 12:33:00,68.3,50.0,30.09,South,174,3.0,7.0,53,0.00,,,0.01,weatherlink.com 1.10,2013-09-27 19:33:00,
2013-09-27 12:48:00,67.5,48.0,30.09,South,174,4.0,8.0,50,0.00,,,0.01,weatherlink.com 1.10,2013-09-27 19:48:00,
2013-09-27 13:03:00,68.1,47.0,30.09,South,174,6.0,8.0,47,0.00,,,0.01,weatherlink.com 1.10,2013-09-27 20:03:00,
2013-09-27 13:18:00,67.9,48.0,30.09,South,174,2.0,8.0,50,0.00,,,0.01,weatherlink.com 1.10,2013-09-27 20:18:00,
2013-09-27 13:34:00,65.5,50.0,30.09,South,174,6.0,13.0,57,0.00,,,0.01,weatherlink.com 1.10,2013-09-27 20:34:00,
2013-09-27 13:49:00,64.6,47.0,30.08,South,174,7.0,11.0,54,0.00,,,0.01,weatherlink.com 1.10,2013-09-27 20:49:00,
2013-09-27 14:04:00,64.8,44.0,30.07,South,174,3.0,10.0,48,0.00,,,0.01,weatherlink.com 1.10,2013-09-27 21:04:00,
2013-09-27 14:19:00,66.5,45.0,30.07,South,174,8.0,11.0,46,0.00,,,0.01,weatherlink.com 1.10,2013-09-27 21:19:00,
2013-09-27 14:34:00,67.7,46.0,30.07,South,174,7.0,11.0,46,0.00,,,0.01,weatherlink.com 1.10,2013-09-27 21:34:00,
2013-09-27 14:49:00,67.5,46.0,30.06,South,174,4.0,11.0,47,0.00,,,0.01,weatherlink.com 1.10,2013-09-27 21:49:00,
2013-09-27 15:04:00,67.1,49.0,30.06,South,174,4.0,8.0,52,0.00,,,0.01,weatherlink.com 1.10,2013-09-27 22:04:00,
2013-09-27 15:19:00,65.1,51.0,30.06,South,174,3.0,9.0,60,0.00,,,0.01,weatherlink.com 1.10,2013-09-27 22:19:00,
2013-09-27 15:34:00,63.5,51.0,30.06,South,174,2.0,10.0,63,0.00,,,0.01,weatherlink.com 1.10,2013-09-27 22:34:00,
2013-09-27 15:49:00,63.4,50.0,30.06,South,174,4.0,8.0,63,0.00,,,0.01,weatherlink.com 1.10,2013-09-27 22:49:00,
2013-09-27 16:19:00,62.6,51.0,30.05,South,174,0.0,8.0,66,0.00,,,0.01,weatherlink.com 1.10,2013-09-27 23:19:00,
2013-09-27 16:34:00,62.8,51.0,30.05,South,174,1.0,7.0,65,0.00,,,0.01,weatherlink.com 1.10,2013-09-27 23:34:00,
2013-09-27 16:49:00,62.6,51.0,30.05,South,174,3.0,5.0,65,0.00,,,0.01,weatherlink.com 1.10,2013-09-27 23:49:00,
2013-09-27 17:04:00,62.6,50.0,30.05,South,174,1.0,8.0,64,0.00,,,0.01,weatherlink.com 1.10,2013-09-28 00:04:00,
2013-09-27 17:19:00,62.7,51.0,30.06,South,174,2.0,7.0,65,0.00,,,0.01,weatherlink.com 1.10,2013-09-28 00:19:00,
2013-09-27 17:34:00,61.7,50.0,30.05,South,174,4.0,7.0,66,0.00,,,0.01,weatherlink.com 1.10,2013-09-28 00:34:00,
2013-09-27 17:49:00,60.7,49.0,30.05,South,174,1.0,7.0,66,0.00,,,0.01,weatherlink.com 1.10,2013-09-28 00:49:00,
2013-09-27 18:04:00,60.5,50.0,30.06,South,174,3.0,5.0,68,0.00,,,0.01,weatherlink.com 1.10,2013-09-28 01:04:00,
2013-09-27 18:19:00,58.8,50.0,30.05,South,174,3.0,6.0,73,0.00,,,0.01,weatherlink.com 1.10,2013-09-28 01:19:00,
2013-09-27 18:34:00,59.1,51.0,30.06,South,174,0.0,5.0,74,0.00,,,0.01,weatherlink.com 1.10,2013-09-28 01:34:00,
2013-09-27 18:49:00,57.5,50.0,30.06,South,174,0.0,3.0,76,0.00,,,0.01,weatherlink.com 1.10,2013-09-28 01:49:00,
2013-09-27 19:04:00,55.9,50.0,30.05,South,174,2.0,2.0,80,0.00,,,0.01,weatherlink.com 1.10,2013-09-28 02:04:00,
2013-09-27 19:19:00,55.4,50.0,30.05,South,174,0.0,3.0,81,0.00,,,0.01,weatherlink.com 1.10,2013-09-28 02:19:00,
2013-09-27 19:34:00,54.7,50.0,30.05,South,175,2.0,4.0,84,0.00,,,0.01,weatherlink.com 1.10,2013-09-28 02:34:00,
2013-09-27 19:49:00,51.6,48.0,30.06,South,174,2.0,3.0,87,0.00,,,0.01,weatherlink.com 1.10,2013-09-28 02:49:00,
2013-09-27 20:04:00,50.4,47.0,30.06,South,174,1.0,2.0,89,0.00,,,0.01,weatherlink.com 1.10,2013-09-28 03:04:00,
2013-09-27 20:19:00,51.2,48.0,30.07,South,174,2.0,3.0,89,0.00,,,0.01,weatherlink.com 1.10,2013-09-28 03:19:00,
2013-09-27 20:34:00,49.6,47.0,30.07,South,174,1.0,3.0,91,0.00,,,0.01,weatherlink.com 1.10,2013-09-28 03:34:00,
2013-09-27 20:49:00,49.0,47.0,30.07,South,173,1.0,3.0,91,0.00,,,0.01,weatherlink.com 1.10,2013-09-28 03:49:00,
2013-09-27 21:04:00,48.5,46.0,30.07,South,175,1.0,2.0,92,0.00,,,0.01,weatherlink.com 1.10,2013-09-28 04:04:00,
2013-09-27 21:19:00,48.7,47.0,30.07,South,174,3.0,3.0,93,0.00,,,0.01,weatherlink.com 1.10,2013-09-28 04:19:00,
2013-09-27 21:34:00,49.2,47.0,30.07,South,174,2.0,4.0,93,0.00,,,0.01,weatherlink.com 1.10,2013-09-28 04:34:00,
2013-09-27 21:49:00,49.4,48.0,30.07,South,174,2.0,2.0,93,0.00,,,0.01,weatherlink.com 1.10,2013-09-28 04:49:00,
2013-09-27 22:04:00,48.9,47.0,30.07,South,174,0.0,2.0,93,0.00,,,0.01,weatherlink.com 1.10,2013-09-28 05:04:00,
2013-09-27 22:19:00,48.0,46.0,30.07,South,174,0.0,0.0,93,0.00,,,0.01,weatherlink.com 1.10,2013-09-28 05:19:00,
2013-09-27 22:34:00,47.5,46.0,30.07,South,175,0.0,0.0,94,0.00,,,0.01,weatherlink.com 1.10,2013-09-28 05:34:00,
2013-09-27 22:49:00,47.7,46.0,30.07,South,175,0.0,0.0,94,0.00,,,0.01,weatherlink.com 1.10,2013-09-28 05:49:00,
2013-09-27 23:04:00,47.1,46.0,30.07,South,174,1.0,3.0,94,0.00,,,0.01,weatherlink.com 1.10,2013-09-28 06:04:00,
2013-09-27 23:19:00,46.9,45.0,30.07,South,173,1.0,3.0,94,0.00,,,0.01,weatherlink.com 1.10,2013-09-28 06:19:00,
2013-09-27 23:34:00,46.3,45.0,30.07,South,174,1.0,2.0,94,0.00,,,0.01,weatherlink.com 1.10,2013-09-28 06:34:00,
2013-09-27 23:49:00,45.9,44.0,30.07,South,174,2.0,2.0,94,0.00,,,0.01,weatherlink.com 1.10,2013-09-28 06:49:00,